Location: Bun Machan
(52.1403°N, 7.3744°W)
Time: 01:59:59
(UTC+00:00)

X-37B - Pass Details

Date: 01 July 2021
Orbit: 383 x 392 km, 45.0° (Epoch: 01 July)

Event Time Altitude Azimuth Distance (km) Brightness Sun altitude
Rises 22:19:03 0° 260° (W) 2,259 4.8 -9.3°
Reaches altitude 10° 22:21:52 10° 233° (SW) 1,402 3.3 -9.5°
Maximum altitude 22:23:31 14° 201° (SSW) 1,208 2.7 -9.6°
Enters shadow 22:24:36 12° 179° (S) 1,290 2.7 -9.7°
